Weather in Porto Santo Stefano

Italy     42°26′22″N   11°06′55″E
temp.,
°C
wind,
m/s
gust,
m/s
humid.,
%
clouds,
%
prec.,
mm/h
press.,
hPa
HPBL,
m
14 may, fri
fri1423:00+16ene226612 0.0 100890
02:00+16ssw137045 0.0 1009146
05:00+15ese32695 0.0 1009241
08:00+14ese677876 0.0 1011312
11:00+16sse8970100 0.0 1011884
14:00+15ssw111287100 1.6 1011731
17:00+14s121386100 5.1 1010844
20:00+14s101291100 11.3 1008852
15 may, sat
sat1523:00+15ssw657871 10.6 1009501
02:00+15s038215 10.8 1010359
05:00+13ene3286100 0.1 1010261
08:00+14nne127929 0.1 1012288
11:00+15nw477817 0.0 1014552
14:00+16nw5670100 0.0 1013687
17:00+16sw3371100 0.0 1013284
20:00+17se457096 0.0 1013421
16 may, sun
sun1623:00+17ese6776100 0.0 1013322
02:00+16se4483100 0.0 1012170
05:00+16ese668699 0.0 1011278
08:00+16ese6888100 0.0 1011413
11:00+17sse8989100 0.0 1012523
14:00+17sse101186100 0.0 1012508
17:00+18sse71079100 0.0 1011254
20:00+18se91282100 0.0 1010302
17 may, mon
mon1723:00+18sse101381100 0.0 1010379
02:00+18se81088100 0.0 1010314
05:00+18se7990100 0.0 1010323
08:00+17se710924 0.0 1011332
11:00+17sse669110 0.0 1012208
14:00+18sse458781 0.0 1012109
17:00+18sse5585100 0.0 1011127
20:00+18se6785100 0.0 1010154
18 may, tue
tue1823:00+17ene5687100 0.0 1011161
02:00+17ene7984100 0.0 1012329
05:00+16e68810 0.0 1011285
08:00+16e5777100 0.0 1012258
11:00+17s016969 0.0 1013139
14:00+17nw12116523 0.0 1014726
17:00+18nw111564100 0.0 1014713
20:00+17nnw9146897 0.0 1014643